Location: Newark
(6.1731°S, 35.7419°E)
Time: 11:14:12
(UTC+00:00)

Altair - Pass Details

Date: 20 February 2020
Orbit: 1501 x 1682 km, 47.2° (Epoch: 06 April)

Event Time Altitude Azimuth Distance (km) Brightness Sun altitude
Rises 18:16:43 0° 206° (SSW) 4,660 10.6 -34.1°
Reaches altitude 10° 18:20:06 10° 198° (SSW) 3,665 9.8 -34.9°
Enters shadow 18:26:25 34° 158° (SSE) 2,284 8.3 -36.4°
